Location: Palomar Mountain Lodge
(33.3110°N, 116.8495°W)
Time: 09:20:41
(UTC-08:00)

Cosmos 1954 Rocket - Pass Details

Date: 12 July 2018
Orbit: 753 x 780 km, 74.0° (Epoch: 20 November)

Event Time Altitude Azimuth Distance (km) Brightness Sun altitude
Rises 20:20:54 0° 190° (S) 3,185 7.0 -4.9°
Reaches altitude 10° 20:23:15 10° 189° (S) 2,264 6.2 -5.3°
Maximum altitude 20:28:22 74° 105° (ESE) 785 3.9 -6.2°
Drops below altitude 10° 20:33:31 10° 21° (NNE) 2,284 6.6 -7.2°
Sets 20:35:54 0° 20° (NNE) 3,216 7.4 -7.6°
